User: anonymous   Login
Location: Austin
(30.3000°N, 97.7500°W)
Time: 03:37:09
(UTC-06:00)
Language:

CZ-2D R/B - Orbit

View from above orbital plane
View from above orbital plane
View from above satellite
View from above satellite

Ground track
Ground track

The orbit data is extracted from the following two-line orbital elements,

1 36597U 10027B   23331.88456643  .00003743  00000-0  33993-3 0  9993
2 36597  98.0305 317.2244 0057688 146.5371 213.9515 14.94642862731194
Epoch (UTC): 27 November 2023 21:13:46
Eccentricity: 0.0057688
inclination: 98.0305°
perigee height: 543 km
apogee height: 623 km
right ascension of ascending node: 317.2244°
argument of perigee: 146.5371°
revolutions per day: 14.94642862
mean anomaly at epoch: 213.9515°
orbit number at epoch: 73119

The dashed part of the orbit path shows where the satellite is in the earth's shadow,  

DLR